Location: Kalamazoo
(42.2920°N, 85.5870°W)
Time: 04:23:36
(UTC-04:00)

Daily predictions for brighter satellites

Satellite Brightness Start Highest point End
(mag) Time Altitude Azimuth Time Altitude Azimuth Time Altitude Azimuth
H-2A R/B 4.3 00:00:44 10° SW 00:03:38 15° W 00:06:35 10° NW
Meteor 1-29 4.2 00:01:29 10° N 00:04:43 36° WNW 00:05:14 34° W
Cosmos 2237 Rocket 2.7 00:03:57 10° NNW 00:09:30 50° ENE 00:11:02 40° ESE
YAOGAN 11 4.4 00:09:09 54° SW 00:09:43 59° W 00:14:12 10° NNW
Cosmos 192 4.2 00:11:43 67° S 00:12:23 86° ESE 00:17:20 10° NNE
Cosmos 1627 Rocket 4.4 00:07:50 10° N 00:14:01 80° W 00:15:50 48° S
Cosmos 2195 Rocket 4.5 00:09:02 10° N 00:15:10 75° W 00:17:05 46° SSW
CENTAUR R/B 4.3 00:10:49 10° W 00:16:19 32° NW 00:22:35 10° NNE
Cosmos 2082 4.5 00:16:48 36° E 00:16:48 36° E 00:21:45 10° NE
Cosmos 1428 Rocket 4.4 00:12:37 10° N 00:18:46 78° E 00:20:15 54° SSE
Cosmos 1634 Rocket 4.2 00:17:53 35° SSW 00:20:36 66° W 00:26:56 10° N
Meteor 1-21 4.1 00:24:50 62° S 00:25:50 83° E 00:31:29 10° NNE
H-2A R/B 3.7 00:26:57 22° ENE 00:27:11 22° ENE 00:30:30 10° NNE
COBE Rocket 3.9 00:23:51 10° NNE 00:28:22 59° E 00:28:22 59° E
Mayak 0.4 00:25:01 10° NE 00:27:37 25° ENE 00:27:37 25° ENE
Cosmos 1766 3.9 00:27:11 10° NNW 00:30:44 51° WNW 00:30:44 51° WNW
Cosmos 2084 Rocket 4.0 00:28:04 10° NNW 00:31:42 46° NE 00:31:42 46° NE
Meteor 1-22 Rocket 4.4 00:27:33 10° NNW 00:32:46 54° W 00:33:40 48° SW
Cosmos 2219 3.8 00:30:45 27° SW 00:33:43 55° WNW 00:39:23 10° NNE
Cosmos 1892 Rocket 3.9 00:34:27 56° W 00:34:37 57° W 00:38:54 10° N
SJ 16-02 3.9 00:40:18 10° WNW 00:41:28 11° W 00:42:18 10° WSW
Cosmos 773 Rocket 3.8 00:41:37 78° SSW 00:41:59 89° W 00:47:10 10° NNE
CZ-4C R/B 3.4 00:39:30 10° NW 00:46:31 48° WSW 00:48:29 41° SSW
Cosmos 1758 3.8 00:43:04 10° N 00:46:29 60° N 00:46:29 60° N
Cosmos 2228 3.8 00:46:00 10° NNW 00:49:50 43° W 00:49:50 43° W
Cosmos 1733 4.0 00:46:42 10° N 00:49:37 48° N 00:49:37 48° N
COSMOS 2455 2.7 00:50:51 64° SSW 00:51:50 83° ESE 00:57:54 10° NNE
CZ-2C R/B 3.5 00:48:59 10° N 00:54:21 46° WNW 00:56:18 33° WSW
Cosmos 2219 Rocket 3.2 00:54:00 10° NW 00:58:54 32° WSW 00:59:19 31° WSW
Cosmos 2058 Rocket 4.4 01:04:58 10° NNW 01:08:50 31° W 01:08:50 31° W
Cosmos 1470 3.7 01:08:05 10° N 01:10:54 46° NNW 01:10:54 46° NNW
Terra 4.2 01:12:52 11° W 01:13:38 11° W 01:15:09 10° WNW
Iridium 4 Rocket 4.0 01:12:59 51° WSW 01:13:53 57° W 01:19:41 10° N
Cosmos 1818 3.4 01:13:59 84° SSE 01:14:06 85° ESE 01:19:35 10° NE
CZ-4C R/B 3.8 01:20:13 67° NNW 01:20:13 67° NNW 01:24:07 10° NNW
Cosmos 2333 Rocket 3.6 01:16:59 10° NW 01:21:27 24° WSW 01:21:39 24° WSW
Meteor 2-5 Rocket 4.1 01:22:13 51° ESE 01:22:38 52° E 01:28:20 10° NNE
ALOS 2 3.0 01:23:42 59° NW 01:23:42 59° NW 01:27:26 10° NNW
Cosmos 2263 Rocket 4.3 01:24:40 13° E 01:24:40 13° E 01:26:57 10° ENE
SL-16 R/B 2.1 01:20:33 10° NNW 01:26:15 83° ENE 01:26:44 75° SE
ISS -1.4 01:25:18 10° NW 01:27:41 23° N 01:27:41 23° N
Cosmos 1953 3.6 01:25:02 10° NNW 01:27:47 35° NW 01:27:47 35° NW
Meteor 1-16 Rocket 4.1 01:23:32 10° N 01:28:50 69° E 01:29:04 68° E
Cosmos 1707 3.9 01:37:14 42° NNW 01:37:14 42° NNW 01:40:06 10° N
deb Chang Zheng 4 4.0 01:34:45 10° NNE 01:38:21 59° NE 01:38:21 59° NE
Cosmos 1812 Rocket 4.4 01:35:17 10° NNW 01:38:43 43° WNW 01:38:43 43° WNW
Cosmos 1953 Rocket 4.2 01:43:34 48° NE 01:43:34 48° NE 01:47:01 10° NNE
Cosmos 972 Rocket 4.0 01:43:21 69° E 01:43:21 69° E 01:48:21 10° NNE
Cosmos 2297 Rocket 3.2 01:41:29 31° W 01:43:19 40° WNW 01:48:38 10° N
Cosmos 2056 Rocket 3.9 01:38:53 10° N 01:43:52 50° ENE 01:44:26 48° E
ADEOS Rocket 2.7 01:40:39 10° N 01:46:09 69° WNW 01:46:45 63° WSW
Cosmos 2227 Rocket 3.5 01:44:40 25° W 01:46:52 34° WNW 01:52:01 10° N
Cosmos-2242 3.8 01:45:10 10° N 01:48:51 45° ENE 01:48:51 45° ENE
Cosmos 1680 Rocket 3.7 01:49:28 60° W 01:49:47 61° WNW 01:54:58 10° NNE
Cosmos 1758 Rocket 3.9 01:53:12 67° N 01:53:12 67° N 01:57:08 10° N
Cosmos 2112 Rocket 4.0 01:52:41 66° W 01:52:53 67° WNW 01:58:05 10° NNE
Cosmos 2237 Rocket 3.7 01:48:44 10° NW 01:52:51 24° W 01:52:51 24° W
Cosmos 1624 Rocket 4.1 01:48:38 10° NNW 01:53:57 66° ENE 01:54:27 63° E
NOSS 3-1 (C) 3.8 01:56:13 43° ESE 01:56:13 43° ESE 02:01:55 10° NE
Cosmos 1603 4.3 01:52:16 10° NNW 01:57:47 51° ENE 01:59:24 39° ESE
CZ-4B R/B 4.2 01:55:05 10° N 01:59:54 44° WNW 02:00:30 42° W
H-2A R/B 3.4 02:04:03 30° WNW 02:04:03 30° WNW 02:06:55 10° NNW
Mayak 0.4 02:00:44 10° NNW 02:04:13 25° WNW 02:04:15 25° WNW
Cosmos 2227 4.1 02:08:38 67° SE 02:08:53 68° ESE 02:14:29 10° NNE
SL-08 R/B 4.4 02:09:07 10° N 02:15:15 81° E 02:16:21 62° SSE
USA 229 DEB 3.6 02:13:41 53° SW 02:15:26 82° NW 02:22:24 10° NE
USA 229 3.6 02:13:49 54° SW 02:15:32 83° NW 02:22:30 10° NE
CZ-4B R/B 3.7 02:15:56 19° ENE 02:15:56 19° ENE 02:18:20 10° NNE
In-Cosmos 22 3.9 02:15:45 73° WSW 02:16:01 76° W 02:21:24 10° N
NOSS 3-1 (A) 3.9 02:16:40 41° ESE 02:16:52 42° ESE 02:22:42 10° NE
Cosmos 1553 Rocket 3.9 02:21:26 64° S 02:22:31 88° W 02:28:43 10° N
Cosmos 1674 3.6 02:26:46 45° NNE 02:26:46 45° NNE 02:29:30 10° NNE
CZ-2D R/B 4.3 02:25:16 10° ENE 02:27:57 14° E 02:29:48 12° ESE
Cosmos 2292 Rocket 3.7 02:24:09 10° N 02:28:08 80° WNW 02:28:08 80° WNW
Cosmos 1400 Rocket 4.4 02:29:35 27° WNW 02:29:35 27° WNW 02:32:45 10° NNW
Cosmos 1689 Rocket 4.5 02:34:07 22° NE 02:34:07 22° NE 02:36:09 10° NNE
SL-24 R/B 4.4 02:32:03 10° NNE 02:34:54 53° NNE 02:34:54 53° NNE
Cosmos 2221 4.0 02:32:51 10° NNE 02:36:45 30° ENE 02:37:43 27° E
PSLV R/B 3.6 02:34:32 10° NNE 02:38:45 82° N 02:38:45 82° N
Cosmos 1340 4.0 02:35:44 10° N 02:39:08 34° ENE 02:39:08 34° ENE
MOS 1 Rocket 3.5 02:35:10 10° N 02:40:39 81° WNW 02:41:21 68° SW
Resurs 1-4 Rocket 3.9 02:42:39 10° NE 02:46:44 22° E 02:48:39 18° ESE
Aureole 1 Rocket 4.1 02:50:33 27° NE 02:50:33 27° NE 02:52:13 10° NE
Cosmos 883 Rocket 4.4 02:51:11 51° SSE 02:52:47 77° E 02:58:54 10° N
Helios 1B 4.5 02:53:11 84° E 02:53:12 84° ENE 02:57:33 10° NNW
DELTA 2 R/B (1) 3.4 02:55:45 65° S 02:55:50 65° S 03:01:23 10° ESE
Cosmos 1315 Rocket 4.5 03:04:05 23° WNW 03:04:05 23° WNW 03:06:54 10° NNW
SL-16 R/B 3.4 03:00:50 16° SE 03:05:33 47° ENE 03:11:27 10° N
Meteor 2-10 3.8 03:02:13 10° NNW 03:07:14 69° W 03:07:49 63° SW
Cosmos 2263 Rocket 2.1 03:06:21 56° SSW 03:07:37 87° WNW 03:13:21 10° NNE
Cosmos 1842 Rocket 3.7 03:04:20 10° NNW 03:08:26 60° W 03:08:26 60° W
Cosmos 2315 Rocket 4.0 03:06:43 45° S 03:08:47 77° E 03:15:02 10° N
Cosmos 1943 3.1 03:03:08 10° NNW 03:08:51 77° WSW 03:10:17 51° S
SL-16 R/B 4.2 03:06:56 10° WNW 03:08:36 13° W 03:08:36 13° W
Cosmos 1745 Rocket 4.4 03:04:41 10° NNW 03:10:45 48° W 03:12:06 41° SW
GEOS 3 Rocket 3.5 03:07:04 10° NE 03:12:26 88° SE 03:13:41 54° SW
BREEZE M DEB (TANK) 4.1 03:10:48 36° S 03:13:07 45° SSE 03:17:06 10° ENE
Cosmos 1726 3.5 03:12:29 10° NNW 03:14:50 29° NW 03:14:50 29° NW
Cosmos 1300 2.7 03:12:22 10° N 03:15:57 78° NNW 03:15:57 78° NNW
Cosmos 468 4.4 03:15:24 57° SSW 03:16:31 86° WNW 03:21:52 10° NNE
Cosmos 1269 Rocket 4.5 03:16:04 41° SSE 03:17:29 53° ESE 03:22:39 10° NNE
Cosmos 1452 Rocket 3.6 03:18:36 10° NNW 03:23:45 54° WSW 03:24:24 50° SW
Cosmos 158 Rocket 4.4 03:22:59 44° WSW 03:24:20 55° WNW 03:29:38 10° NNE
H-2A R/B 3.3 03:21:22 10° NNE 03:25:41 47° E 03:26:47 38° SE
Cosmos 1455 4.3 03:23:07 10° NNE 03:26:12 23° ENE 03:28:27 14° ESE
Cosmos 1048 Rocket 3.9 03:30:07 51° SSW 03:31:29 83° WNW 03:36:47 10° NNE
NOSS 2-3 (E) 4.2 03:30:40 43° SSE 03:31:39 51° ESE 03:36:41 10° NE
Landsat 5 4.4 03:35:46 33° W 03:35:46 33° W 03:38:58 10° NNW
ATLAS 2AS CENTAUR R/B 4.5 03:35:04 13° SSE 03:40:17 26° ESE 03:46:39 10° NE
Okean 3 Rocket 3.5 03:44:47 51° SSW 03:45:54 81° W 03:50:22 10° N
AQUA 3.7 03:41:21 10° NNE 03:46:08 86° E 03:47:45 42° S
NOSS 3-1 (C) 4.5 03:43:36 20° W 03:46:58 37° NW 03:53:01 10° NNE
Cosmos 1709 Rocket 4.3 03:41:33 10° NNW 03:47:40 49° W 03:50:00 34° SW
CZ-4B R/B 3.3 03:49:22 20° WNW 03:49:22 20° WNW 03:51:03 10° NW
Cosmos 2074 Rocket 4.1 03:42:16 10° N 03:48:29 72° E 03:53:18 18° SSE
Cosmos 1607 4.0 03:43:04 10° NNW 03:49:32 85° ENE 03:55:50 10° SE
SL-24 R/B - RUBIN 2 3.9 03:47:47 41° SW 03:49:36 76° NW 03:54:26 10° NNE
SL-14 R/B 4.3 03:50:47 30° W 03:50:55 30° WNW 03:54:23 10° NNW
Cosmos 2184 Rocket 4.1 03:47:35 10° N 03:54:00 77° E 03:59:10 16° SSE
SeaSat 1 2.6 03:51:36 10° SE 03:56:31 77° ENE 04:01:27 10° NNW
Spot 4 Rocket 4.5 03:52:04 10° NNE 03:57:08 57° E 04:00:06 24° S
Cosmos 1626 2.3 03:57:05 48° WSW 03:57:28 51° W 04:01:08 10° N
Cosmos 2285 Rocket 4.4 03:56:20 29° SW 03:59:19 50° WNW 04:05:30 10° N
Cosmos 1076 Rocket 3.9 03:59:25 40° WSW 04:00:25 48° WNW 04:04:38 10° N
UNK 3.7 03:59:24 36° SSW 04:01:08 63° W 04:05:47 10° NNW
Meteor 1-27 4.4 03:57:24 10° N 04:03:06 76° E 04:08:15 13° SSE
CBERS-1 4.2 03:59:18 10° N 04:04:19 59° WNW 04:06:29 33° SW
Cosmos 1328 4.2 04:03:38 40° WSW 04:04:24 46° W 04:08:16 10° N
IRS-1C 4.1 03:59:05 10° NNE 04:04:27 81° WNW 04:07:08 31° SSW
NOSS 3-1 (A) 4.4 04:04:05 19° W 04:07:46 38° NW 04:13:53 10° NNE
CZ-2D R/B 2.1 04:03:21 10° N 04:08:33 71° WNW 04:11:07 30° SSW
NOSS 2-3 (C) 3.8 04:07:51 35° SW 04:09:51 78° NW 04:15:15 10° NE
Cosmos 2151 3.8 04:07:27 20° SSE 04:10:10 48° E 04:14:20 10° NNE
SL-08 R/B 3.6 04:10:45 31° SSW 04:12:45 50° W 04:17:32 10° NNW
USA 267 3.3 04:06:27 10° NE 04:13:00 74° SE 04:17:05 25° SW
Cosmos 2221 3.9 04:10:41 10° NW 04:14:09 23° W 04:14:34 23° W
IRS-1D 3.6 04:09:09 10° N 04:14:30 77° WNW 04:17:27 27° SSW
Cosmos 2327 Rocket 4.4 04:09:56 10° N 04:16:02 85° W 04:21:23 14° S
Cosmos 1110 Rocket 3.9 04:11:27 10° NNW 04:16:39 74° WSW 04:21:13 13° S
ARIANE 5 R/B 2.4 04:13:30 10° NNE 04:18:37 88° ESE 04:21:43 24° SSW
ERS-1 4.5 04:15:32 10° N 04:20:40 78° WNW 04:23:46 25° SSW
Cosmos 494 Rocket 4.0 04:19:37 28° SSW 04:22:24 74° WNW 04:27:39 10° NNE
BREEZE-M DEB (TANK) 3.9 04:19:24 22° SW 04:24:35 57° SSE 04:28:09 10° ENE
H-II Stage 2 4.1 04:24:03 22° SSW 04:26:27 28° SSE 04:41:18 10° ESE
Resurs 1-4 Rocket 2.5 04:21:42 10° N 04:26:48 48° WNW 04:29:44 24° SW
Cosmos 1844 Rocket 2.7 04:29:01 23° SSW 04:32:40 82° WNW 04:38:23 10° NNE
OAO 2 Rocket 3.9 04:32:57 24° SW 04:35:06 36° S 04:39:36 10° ESE
PSLV R/B 4.4 04:33:26 25° SSW 04:35:28 43° W 04:39:30 10° NNW
MOZ.5/SAFIR/RUBIN 5/SL-8 4.3 04:37:41 21° SSW 04:40:29 41° W 04:44:59 10° NNW
Cosmos 1328 Rocket 3.5 04:36:24 10° NNW 04:40:40 60° W 04:44:01 16° S
Cosmos 1441 Rocket 3.5 04:37:21 10° N 04:41:21 70° E 04:45:15 10° SSE
DELTA 2 R/B (1) 4.1 04:36:47 10° W 04:41:54 37° SSW 04:47:01 10° SE
Cosmos 1500 Rocket 3.7 04:39:17 14° S 04:43:04 77° E 04:47:31 10° N
Cosmos 2278 Rocket 3.3 04:37:56 10° S 04:43:11 40° ESE 04:48:26 10° NE
Cosmos 1703 4.3 04:42:47 22° WSW 04:44:26 30° WNW 04:47:59 10° NNW
USA 234 4.2 04:40:20 10° ESE 04:46:36 51° NNE 04:52:54 10° NW
ADEOS II 2.6 04:41:28 10° NNE 04:46:41 60° E 04:51:52 10° S
Cosmos 1844 3.7 04:44:12 18° SSW 04:48:25 80° WNW 04:54:09 10° NNE
Cosmos 921 Rocket 4.2 04:45:01 10° NW 04:48:26 23° W 04:49:53 20° SW
SL-16 R/B 3.4 04:45:56 18° SW 04:49:20 29° W 04:54:38 10° NW
Cosmos 2263 Rocket 4.2 04:49:01 10° W 04:52:25 16° NW 04:55:49 10° N
Cosmos 2228 Rocket 3.1 04:47:55 10° NNW 04:52:30 70° W 04:57:01 10° S
UNKNOWN OBJECT B 2.7 04:52:02 10° N 04:55:44 65° WNW 04:58:38 16° SSW
Meteor 2-21 Rocket 4.5 04:51:00 10° NNW 04:57:03 63° W 05:03:01 10° S
H-2A R/B 4.4 04:57:49 10° NNW 05:00:48 18° WNW 05:03:22 11° WSW
Meteor 2-16 Rocket 4.4 04:54:46 10° NNW 05:00:51 72° W 05:06:56 10° S
USA 238 DEB 4.4 04:53:50 10° NNW 05:00:55 63° NE 05:08:04 10° SE
USA 238 4.4 04:53:57 10° NNW 05:01:01 63° NE 05:08:11 10° SE
Cosmos 1455 3.6 04:58:50 10° NW 05:01:44 21° W 05:03:22 16° WSW
Cosmos 1302 Rocket 4.1 04:57:27 10° NNW 05:02:40 59° WSW 05:07:50 10° S
Cosmos 1515 Rocket 3.8 04:59:35 10° NNW 05:03:47 49° W 05:07:58 10° SSW
Lacrosse 5 4.3 05:03:21 10° SSE 05:05:48 14° ESE 05:08:16 10° E
GP-B 3.1 05:04:45 10° N 05:09:13 85° W 05:13:39 10° S
Helios 1A Rocket 3.4 05:06:06 10° N 05:09:59 44° WNW 05:13:24 13° SW
Cosmos 1869 3.4 05:08:40 10° NNW 05:12:31 55° W 05:16:22 10° S
Cosmos 2251 Rocket 3.9 05:08:21 13° SW 05:12:59 51° WNW 05:18:14 10° N
Cosmos 2341 Rocket 4.0 05:07:19 10° NNW 05:13:31 69° W 05:19:45 10° S
Cosmos 724 4.5 05:07:41 10° NNW 05:13:41 83° ENE 05:19:46 10° SSE
Cosmos 2058 4.2 05:10:57 14° SW 05:13:48 26° WNW 05:17:23 10° NNW
COSMOS 2406 3.4 05:09:25 10° NNW 05:15:03 54° WSW 05:20:38 10° S
Cosmos 1151 Rocket 3.7 05:11:43 10° NNW 05:15:45 36° W 05:19:43 10° SSW
ADEOS 4.0 05:13:14 10° N 05:18:15 49° WNW 05:23:16 10° SW
SL-8 Rocket 4.1 05:12:40 10° N 05:18:53 86° E 05:25:07 10° S
Okean O Rocket 4.1 05:16:13 10° NE 05:19:29 20° E 05:22:45 10° SE
APEX 3.4 05:17:16 10° NNW 05:19:57 49° ENE 05:22:41 10° SE
CZ-2D R/B 4.5 05:19:41 10° N 05:23:43 34° WNW 05:27:43 10° SW
Cosmos 2181 Rocket 4.2 05:22:47 10° SSW 05:29:10 66° W 05:35:37 10° N
Sich 1 3.7 05:25:07 10° S 05:29:16 56° E 05:33:28 10° NNE
Cosmos 2082 Rocket 3.6 05:24:07 10° NNW 05:29:37 45° ENE 05:35:05 10° SE
Cosmos 2366 rocket 4.2 05:24:15 10° N 05:30:33 81° E 05:36:44 10° S
ATLAS 2AS CENTAUR R/B 3.2 05:22:44 10° SW 05:30:35 76° NW 05:38:46 10° NNE
SeaSat 1 4.1 05:31:56 10° SW 05:34:30 14° WSW 05:37:04 10° WNW
